Kuchera_Ratio
0.0 0.0 0.0 0.0 0.0 0.0 0.0 0.0 0.0 0.0 0.0 0.0 0.0 0.0 0.0 0.0 0.0 0.0 0.0 0.0 0.0 0.0 0.0 0.0 0.0 0.0 0.0 0.0 0.0 0.0 0.0 0.0 0.0 0.0 0.0 0.0 0.0 0.0 0.0 0.0 0.0 0.0 0.0 0.0
0.0 0.0 0.0 0.0 0.0 0.0 0.0 0.0 0.0 0.0 0.0 0.0 0.0 0.0 0.0 0.0 0.0 0.0 0.0 0.0 0.0 0.0 0.0 0.0 0.0 0.0 0.0 0.0 0.0 0.0 0.0 0.0 0.0 0.0 0.0 0.0 0.0 0.0 0.0 0.0 0.0 0.0 0.0 0.0
0.0 0.0 0.0 0.0 0.0 0.0 0.0 0.0 0.0 0.0 0.0 0.0 0.0 0.0 0.0 0.0 0.0 0.0 0.0 0.0 0.0 0.0 0.0 0.0 0.0 0.0 0.0 0.0 0.0 0.0 0.0 0.0 0.0 0.0 0.0 0.0 0.0 0.0 0.0 0.0 0.0 0.0 0.0 0.0
0.0 0.0 0.0 0.0 0.0 0.0 0.0 0.0 0.0 0.0 0.0 0.4 0.0 1.4 0.0 0.0 0.0 0.0 0.0 0.0 0.0 0.0 0.0 0.0 0.0 0.0 0.0 0.0 0.0 0.0 0.0 0.0 0.0 0.0 0.0 0.0 0.0 0.0 0.0 0.0 0.0 0.0 0.0 0.0
2.6 0.0 0.0 0.0 0.0 0.0 0.0 0.0 0.0 0.0 0.0 0.0 0.0 0.2 0.0 0.0 0.0 0.0 0.0 0.0 0.0 0.0 0.0 0.0 0.0 0.0 0.0 0.0 0.0 0.0 0.0 0.0 0.0 0.0 0.0 0.0 0.0 0.0 0.0 0.0 0.0 0.0 0.0 0.0
0.6 0.0 0.0 0.0 0.0 0.0 0.0 0.0 0.0 0.0 3.2 9.6 1.2 0.0 0.0 0.0 0.0 0.0 0.0 0.0 0.0 0.0 0.0 0.0 0.0 0.0 0.0 0.0 0.0 0.0 0.0 0.0 0.0 0.0 0.0 0.0 0.0 0.0 0.0 0.0 0.0 0.0 0.0 0.0
1.8 1.0 0.0 0.0 0.0 0.0 0.0 0.0 9.2 11.8 12.2 10.0 0.0 1.0 0.0 0.0 0.0 0.0 0.0 0.0 0.0 0.0 0.0 0.0 0.0 0.0 0.0 0.0 0.0 0.0 0.0 0.0 0.0 0.0 0.0 0.0 0.0 0.0 0.0 0.0 0.0 0.0 0.0 0.0
12.6 13.7 7.0 3.4 3.6 3.4 2.0 1.6 8.4 13.7 13.6 7.0 0.0 6.2 0.0 0.0 0.0 0.0 0.0 0.0 0.0 0.0 0.0 0.0 0.0 0.0 0.0 0.0 0.0 0.0 0.0 0.0 0.0 0.0 0.0 0.0 0.0 0.0 0.0 0.0 0.0 0.0 0.0 0.0
13.2 13.1 5.0 4.2 3.0 2.2 1.2 5.4 0.0 6.4 3.2 10.4 3.6 1.0 0.0 0.0 0.0 0.0 0.0 0.0 0.0 0.0 0.0 0.0 0.0 0.0 0.0 0.0 0.0 0.0 0.0 0.0 0.0 0.0 0.0 0.0 0.0 0.0 0.0 0.0 0.0 0.0 0.0 0.0
11.8 14.5 6.0 2.0 1.2 1.8 4.8 1.0 7.2 5.0 13.0 13.6 7.6 0.8 5.0 5.0 3.4 0.0 0.0 0.0 0.0 0.0 0.0 0.0 0.0 0.0 0.0 0.0 0.0 0.0 0.0 0.0 0.0 0.0 0.0 0.0 0.0 0.0 0.0 0.0 0.0 0.0 0.0 0.0
8.4 11.0 10.8 2.4 7.4 8.6 8.6 9.4 7.8 9.4 10.8 12.9 13.2 14.0 6.8 5.0 3.0 3.2 0.0 0.0 0.0 0.0 0.0 0.0 0.0 0.0 0.0 0.0 0.0 0.0 0.0 0.0 0.0 0.0 0.0 0.0 0.0 0.0 0.0 0.0 0.0 0.0 0.0 0.0
3.8 11.6 13.8 10.0 0.0 0.2 4.8 8.4 8.2 13.7 13.8 12.0 12.3 14.6 7.4 3.2 1.4 0.0 0.0 0.0 0.0 0.0 0.0 0.0 0.0 0.0 0.0 0.0 0.0 0.0 0.0 0.0 0.0 0.0 0.0 0.0 0.0 0.0 0.0 0.0 0.0 0.0 0.0 0.0
7.0 11.8 16.0 13.6 6.6 1.8 7.6 5.2 6.2 8.2 8.8 14.4 14.7 14.1 5.8 4.6 5.0 0.8 0.0 0.0 0.0 0.0 0.0 0.0 0.0 0.0 0.0 0.0 0.0 0.0 0.0 0.0 0.0 0.0 0.0 0.0 0.0 0.0 0.0 0.0 0.0 0.0 0.0 0.0
1.4 11.8 14.3 16.8 13.8 10.4 11.5 7.8 4.4 10.8 13.8 13.6 12.1 11.4 7.8 7.6 7.0 5.4 2.8 0.0 0.0 0.0 0.0 0.0 0.0 0.0 0.0 0.0 0.0 0.0 0.0 0.0 0.0 0.0 0.0 0.0 0.0 0.0 0.0 0.0 0.0 0.0 0.0 0.0
3.6 14.0 11.2 7.4 5.6 3.0 3.8 3.6 2.6 7.8 7.6 13.2 10.8 8.6 5.0 4.2 2.2 0.0 0.0 0.0 0.0 0.0 0.0 0.0 0.0 0.0 0.0 0.0 0.0 0.0 0.0 0.0 0.0 0.0 0.0 0.0 0.0 0.0 0.0 0.0 0.0 0.0 0.0 0.0
4.4 12.9 10.8 12.5 4.4 5.4 7.8 2.4 1.0 0.8 6.4 6.4 5.8 6.6 0.0 0.0 0.0 0.0 0.0 0.0 0.0 0.0 0.0 0.0 0.0 0.0 0.0 0.0 0.0 0.0 0.0 0.0 0.0 0.0 0.0 0.0 0.0 0.0 0.0 0.0 0.0 0.0 0.0 0.0
11.3 13.2 13.5 15.9 9.8 11.0 15.6 9.0 4.2 1.6 0.4 3.6 10.9 2.4 0.0 0.0 0.0 0.0 0.0 0.0 0.0 0.0 0.0 0.0 0.0 0.0 0.0 0.0 0.0 0.0 0.0 0.0 0.0 0.0 0.0 0.0 0.0 0.0 0.0 0.0 0.0 0.0 0.0 0.0
13.0 13.0 13.1 16.8 14.4 20.1 8.8 0.0 0.0 3.6 1.2 0.0 0.0 0.0 0.0 0.0 0.0 0.0 0.0 0.0 0.0 0.0 0.0 0.0 0.0 0.0 0.0 0.0 0.0 0.0 0.0 0.0 0.0 0.0 0.0 0.0 0.0 0.0 0.0 0.0 0.0 0.0 0.0 0.0
5.0 12.7 15.3 17.6 17.1 12.8 8.6 7.0 7.2 7.0 9.2 0.0 1.6 0.0 0.0 0.0 0.0 0.0 0.0 0.0 0.0 0.0 0.0 0.0 0.0 0.0 0.0 0.0 0.0 0.0 0.0 0.0 0.0 0.0 0.0 0.0 0.0 0.0 0.0 0.0 0.0 0.0 0.0 0.0
4.6 5.9 12.5 17.5 18.1 20.9 12.5 5.6 0.0 0.0 13.9 4.4 0.0 0.4 0.0 0.0 11.4 7.8 0.0 0.0 0.0 0.0 0.0 0.0 0.0 0.0 0.0 0.0 0.0 0.0 0.0 0.0 0.0 0.0 0.0 0.0 0.0 0.0 0.0 0.0 0.0 0.0 0.0 0.0
12.8 13.1 17.8 18.4 18.5 16.2 7.8 1.6 0.0 13.5 14.1 1.4 0.0 0.0 0.4 5.6 2.9 0.0 0.0 0.0 0.0 0.0 0.0 0.0 0.0 0.0 0.0 0.0 0.0 0.0 0.0 0.0 0.0 0.0 0.0 0.0 0.0 0.0 0.0 0.0 0.0 0.0 0.0 0.0
15.8 18.2 18.2 16.5 18.9 19.4 5.6 2.8 10.8 8.4 1.6 0.0 1.0 1.4 2.3 2.0 0.2 0.0 0.0 0.0 0.0 0.0 0.0 0.0 0.0 0.0 0.0 0.0 0.0 0.0 0.0 0.0 0.0 0.0 0.0 0.0 0.0 0.0 0.0 0.0 0.0 0.0 0.0 0.0
14.2 11.8 13.6 15.8 15.9 7.0 3.0 4.6 0.0 0.0 1.0 1.4 1.6 1.0 1.4 3.4 3.0 1.4 1.9 1.0 0.0 0.0 0.0 0.0 0.0 0.0 0.0 0.0 0.0 0.0 0.0 0.0 0.0 0.0 0.0 0.3 0.0 0.0 0.0 0.0 0.0 0.0 0.0 0.0
6.2 3.8 12.0 11.0 9.0 6.2 5.4 0.0 0.0 0.0 1.0 0.1 0.0 0.0 1.2 5.8 4.8 5.6 4.4 4.2 3.4 1.6 0.8 0.0 0.0 0.2 0.4 0.0 0.0 0.0 0.0 0.0 1.0 3.1 3.4 3.1 3.4 2.5 1.0 1.0 0.4 0.0 0.0 0.0
8.6 6.8 10.0 11.0 6.8 4.4 1.4 0.0 0.0 0.0 0.0 0.0 0.0 3.4 4.8 5.0 5.9 5.7 6.4 5.2 4.0 3.2 2.0 1.2 2.2 2.6 2.6 2.4 2.8 1.8 1.0 0.4 2.2 2.8 3.4 4.2 4.0 4.0 4.0 2.5 1.5 1.6 0.0 0.0
2.8 6.7 11.2 14.6 2.9 3.9 2.2 0.0 0.0 0.8 2.0 1.9 3.2 4.6 4.0 4.2 5.7 6.6 7.6 5.3 5.0 5.6 4.8 4.8 4.4 4.2 3.6 3.4 3.2 1.8 0.2 0.6 3.0 5.0 4.4 4.4 4.6 4.3 3.3 3.6 1.7 1.8 1.8 0.0